Wind_Speed
14 14 15 16 17 18 19 21 21 22 23 24 24 25 26 27 28 29 30 31 30 30 30 31 31 31 31 30 31 32 35 38 38 38 36 36 42 43 43 47 54 61 54 55 47
13 14 15 14 15 15 17 18 20 21 22 22 22 23 24 26 29 32 31 32 32 33 33 33 34 35 35 35 35 35 37 40 40 40 39 39 45 47 43 48 48 49 53 55 54
12 12 13 14 13 13 14 15 17 19 20 21 21 21 22 25 29 27 30 32 33 34 34 34 35 35 35 35 36 36 39 40 41 40 41 43 48 51 50 47 47 46 55 50 32
13 13 13 14 14 14 14 15 16 18 19 20 21 21 21 23 24 26 27 29 30 31 32 32 33 33 32 32 32 33 36 37 39 38 39 45 44 50 51 48 44 44 51 60 73
13 12 13 15 17 18 17 17 18 19 19 20 20 20 21 23 22 23 25 26 27 28 28 29 29 30 30 31 31 32 33 35 37 36 37 42 45 51 51 41 42 44 50 58 66
13 13 13 14 17 19 22 21 20 21 22 22 22 22 22 24 24 24 25 26 27 28 29 30 30 31 32 33 34 34 36 38 38 38 38 41 45 55 49 44 42 43 48 55 61
17 17 17 17 18 21 22 24 25 24 23 24 26 27 27 27 27 27 27 28 29 30 30 31 32 33 35 35 37 38 39 40 40 40 42 46 49 51 49 52 46 45 53 60 63
20 20 20 20 21 21 22 24 27 28 27 26 26 29 31 31 31 31 31 31 31 32 33 33 34 35 36 37 40 40 40 41 41 41 44 46 50 55 45 49 50 56 57 61 64
25 24 24 24 25 25 25 25 27 29 31 31 30 30 31 31 32 33 34 34 34 35 35 36 36 37 38 40 41 40 42 44 43 42 46 48 49 54 49 48 52 56 61 66 67
29 28 28 27 29 29 30 30 29 29 31 34 34 34 34 35 35 35 35 36 37 38 38 39 40 41 42 43 42 43 47 47 45 43 49 50 52 59 51 53 53 57 63 68 72
35 32 31 30 32 32 32 33 34 33 33 33 37 38 37 38 38 39 39 40 41 42 42 44 44 44 43 46 46 48 48 50 50 46 51 54 54 64 56 53 57 59 62 64 68
38 37 34 35 36 36 35 37 38 37 38 38 37 37 40 41 41 41 42 42 43 44 45 45 45 44 48 48 49 50 51 53 55 53 53 55 57 64 65 56 52 58 62 65 67
38 39 37 39 39 38 38 40 38 37 38 40 41 41 40 40 40 42 44 46 47 47 48 48 46 46 52 50 51 52 52 55 59 62 57 57 57 62 61 59 57 60 63 66 68
41 42 41 41 40 41 38 37 36 35 31 33 37 42 42 43 44 45 45 46 47 48 50 53 47 51 54 55 53 56 54 58 61 62 63 60 62 56 59 59 62 65 66 61 58
44 44 44 41 42 40 36 35 34 27 21 24 25 29 33 37 40 41 44 46 48 50 53 54 50 54 57 52 56 56 56 59 61 63 62 66 66 55 51 46 50 48 50 55 53
45 46 45 44 42 39 35 34 31 27 22 23 19 18 20 24 27 33 35 37 40 42 46 45 45 51 51 51 55 56 54 56 56 54 51 56 58 47 41 39 43 49 53 52 49
49 49 47 46 43 40 37 35 35 32 28 24 24 23 21 20 20 24 26 29 32 34 37 40 40 39 42 45 44 43 44 44 44 44 44 48 48 44 37 38 42 49 49 51 48
54 54 52 48 45 41 40 37 39 38 31 28 28 25 25 21 21 23 23 22 23 27 30 32 33 32 42 40 39 39 40 40 39 43 47 50 44 38 34 33 37 50 56 52 48
58 55 52 49 48 44 44 41 44 39 33 34 31 28 28 26 25 25 24 22 27 27 27 29 28 32 33 40 39 39 40 39 39 40 44 53 47 41 44 47 47 51 53 52 49
59 58 57 54 53 51 48 47 45 42 39 37 34 31 29 28 28 27 27 26 26 29 30 30 30 31 31 35 40 40 45 44 42 42 45 50 43 32 37 43 47 44 41 42 45
67 66 65 62 60 58 53 50 48 43 41 39 36 32 31 31 28 28 27 29 27 33 36 32 33 35 33 32 37 39 45 46 46 50 51 54 55 42 40 42 42 45 45 46 50
63 62 64 63 61 55 53 51 49 47 44 42 38 34 31 32 28 27 27 29 32 33 40 36 36 39 40 39 37 39 41 43 45 47 52 54 55 53 49 44 43 43 45 48 55
52 49 52 51 53 51 51 52 51 47 44 43 41 37 34 35 35 33 31 34 37 37 39 40 37 40 42 43 40 42 45 48 50 52 55 56 56 51 49 49 51 47 46 49 53
52 50 50 48 49 50 53 56 54 50 46 45 43 42 39 39 41 41 37 42 42 42 42 43 40 41 42 46 43 44 48 48 51 55 55 58 55 47 45 47 49 49 50 50 46
52 47 51 52 51 54 55 59 58 56 52 49 47 45 45 44 46 47 43 43 42 46 46 45 43 41 44 44 45 44 46 49 51 50 52 58 53 47 41 39 41 43 46 48 43
56 56 56 53 52 56 55 60 61 59 56 54 52 52 50 50 51 51 47 47 47 51 47 46 44 43 45 45 45 45 47 50 50 51 50 56 44 41 38 37 36 40 41 38 39
58 57 56 52 53 53 56 61 62 62 58 57 55 57 57 52 55 56 57 52 50 48 51 48 45 45 47 46 45 46 47 51 51 50 50 48 41 36 33 31 35 40 35 34 38
Wind_Direction
263 265 266 262 260 258 257 257 254 251 246 243 242 240 239 237 237 238 240 240 240 244 245 245 246 248 249 249 249 247 246 248 248 248 247 246 251 247 239 241 241 242 248 244 244
270 271 271 272 268 261 260 260 258 255 251 249 246 244 242 240 240 240 242 243 244 246 247 248 249 249 250 250 249 249 250 250 250 252 253 253 251 249 238 240 240 245 239 246 253
268 269 272 276 276 270 264 262 258 254 252 250 249 246 242 239 240 243 242 243 244 246 248 250 250 250 251 251 251 252 252 254 255 255 256 254 257 255 249 236 237 240 242 241 245
269 270 272 274 277 278 274 266 260 252 251 248 246 243 241 241 241 239 241 240 241 243 245 246 249 250 250 250 250 249 251 253 254 254 256 258 255 260 256 251 243 232 233 238 244
267 274 281 281 279 276 274 272 265 258 253 248 242 240 240 241 238 239 240 242 243 244 244 244 246 249 250 252 252 252 253 251 252 253 252 260 262 259 261 254 251 247 243 239 244
264 276 284 294 293 280 271 268 266 263 256 251 247 243 242 244 246 246 245 246 246 248 249 251 252 255 257 256 256 256 256 257 258 258 257 257 263 267 264 263 255 252 253 255 255
261 270 276 284 298 294 281 266 263 261 260 255 252 249 247 248 247 247 248 248 249 250 252 253 254 256 256 258 257 256 258 260 260 261 261 261 258 258 266 269 268 263 257 256 253
257 266 270 277 290 297 294 279 264 260 258 256 254 252 251 252 250 250 250 250 250 251 253 254 255 256 258 259 259 259 260 259 261 261 260 263 264 266 261 265 267 266 265 263 262
258 264 274 276 284 293 296 292 277 263 258 256 256 255 254 252 253 253 253 252 252 253 255 256 256 258 261 262 263 264 264 261 261 262 266 263 266 269 262 263 266 269 272 271 268
259 268 273 277 280 288 293 292 285 272 261 257 255 255 256 255 255 254 254 255 256 258 259 260 261 263 265 267 268 267 266 264 260 261 264 266 269 272 271 271 271 273 273 274 274
259 265 269 276 277 282 289 289 284 274 266 263 257 255 254 256 257 257 257 259 259 261 262 263 265 267 270 269 266 268 268 269 268 265 265 269 270 273 272 270 273 273 272 271 272
259 264 267 273 277 281 284 288 285 275 265 262 260 259 256 255 256 257 258 259 260 262 263 265 266 269 266 268 270 270 271 272 274 271 269 272 276 277 277 273 274 274 275 275 274
258 263 268 273 276 282 282 289 287 278 270 262 259 257 256 257 258 259 260 260 260 261 262 263 264 268 267 268 269 271 273 275 276 276 274 275 278 278 285 283 279 276 274 275 278
259 265 269 271 275 281 282 291 288 281 275 267 260 257 257 259 259 261 262 262 262 263 264 265 267 266 268 269 273 271 272 275 277 280 282 280 276 281 285 287 284 281 280 280 279
260 265 269 270 276 277 282 290 285 272 269 271 267 264 262 261 262 261 261 262 264 265 265 268 267 267 267 272 271 273 275 275 278 280 282 282 281 281 282 278 274 275 279 280 284
258 262 267 271 273 275 283 286 271 260 261 273 274 275 272 268 267 266 267 268 270 270 270 272 271 270 273 271 272 274 275 277 278 280 283 279 281 285 278 273 272 272 272 276 280
259 263 267 271 268 276 281 279 262 255 257 269 272 277 281 277 279 279 279 280 281 281 278 273 272 275 275 273 277 279 277 278 279 281 278 282 282 290 284 280 274 275 277 279 282
262 264 265 268 267 274 278 272 260 254 263 267 268 276 275 273 276 283 284 290 292 286 285 283 281 278 276 280 280 281 283 281 284 281 278 278 280 281 283 278 275 281 284 285 285
261 262 262 264 267 273 275 262 258 255 261 263 269 274 269 268 271 280 284 287 292 296 297 294 287 279 280 284 285 285 283 285 284 290 289 284 283 284 283 283 285 285 285 284 289
261 262 262 262 265 271 270 260 255 253 256 262 266 269 271 270 273 276 282 288 297 298 295 298 300 294 286 284 286 285 285 285 284 286 288 287 290 294 294 294 295 295 283 280 287
263 264 263 263 264 267 264 257 250 249 254 258 264 268 268 270 275 281 284 292 294 292 295 303 297 296 297 292 286 291 290 289 289 288 286 285 287 288 288 294 296 301 299 300 298
261 261 262 262 260 258 253 249 248 247 252 256 260 262 266 272 275 281 293 300 296 291 292 294 291 294 296 298 298 292 289 290 290 290 291 290 289 287 282 281 280 282 286 299 303
258 257 260 259 253 250 246 240 240 242 247 252 256 257 262 269 277 281 294 297 300 294 288 289 290 288 290 295 298 291 293 292 292 293 293 293 291 289 287 279 277 280 285 289 300
257 258 262 258 253 243 239 237 238 241 245 250 254 257 260 268 275 282 291 298 301 298 292 287 285 286 287 289 296 295 292 293 292 295 299 297 294 294 290 283 281 282 284 290 298
259 259 258 255 251 245 239 235 235 238 243 247 251 256 260 267 275 281 292 297 295 292 292 286 286 288 288 288 293 300 296 297 298 300 300 297 303 298 285 277 280 287 290 296 298
254 252 251 253 250 246 242 239 237 240 243 247 252 256 262 267 275 284 290 287 291 292 292 286 286 288 288 289 292 299 300 303 303 302 305 303 302 292 286 281 286 285 286 291 287
250 252 251 251 251 249 244 239 238 241 244 249 254 259 261 268 274 276 282 286 289 285 285 287 284 285 288 289 292 296 304 304 302 308 309 304 299 293 284 286 289 287 290 290 290
Height
10872 10872 10873 10874 10875 10876 10877 10878 10879 10881 10882 10883 10885 10888 10890 10893 10894 10895 10896 10899 10902 10904 10907 10909 10911 10913 10916 10919 10921 10924 10923 10921 10922 10925 10929 10932 10927 10930 10935 10936 10936 10936 10931 10937 10940
10869 10870 10870 10871 10871 10871 10872 10873 10874 10876 10877 10879 10881 10883 10885 10887 10888 10889 10893 10893 10896 10899 10901 10903 10905 10907 10909 10912 10914 10916 10915 10914 10917 10920 10922 10922 10916 10915 10924 10926 10929 10929 10928 10925 10929
10866 10867 10867 10867 10867 10868 10868 10869 10870 10871 10873 10874 10876 10878 10880 10881 10881 10886 10886 10888 10890 10892 10894 10896 10898 10900 10902 10905 10908 10909 10908 10909 10911 10913 10913 10912 10906 10903 10905 10919 10925 10931 10929 10932 10925
10863 10863 10864 10864 10864 10864 10864 10865 10866 10867 10869 10870 10872 10874 10875 10875 10879 10879 10881 10882 10884 10886 10888 10889 10891 10893 10895 10897 10901 10902 10902 10903 10903 10907 10905 10899 10901 10890 10890 10902 10922 10929 10926 10921 10916
10859 10860 10860 10860 10860 10860 10861 10861 10862 10863 10865 10866 10868 10870 10871 10871 10874 10875 10877 10878 10879 10880 10882 10883 10885 10886 10888 10890 10893 10894 10895 10895 10896 10899 10898 10893 10890 10878 10882 10901 10908 10910 10912 10910 10905
10856 10856 10857 10857 10856 10856 10856 10857 10857 10858 10860 10862 10864 10865 10867 10867 10868 10870 10872 10873 10874 10875 10876 10877 10879 10879 10881 10883 10885 10886 10887 10887 10889 10890 10892 10888 10883 10868 10878 10888 10895 10897 10896 10888 10882
10852 10853 10853 10853 10852 10852 10851 10852 10852 10854 10855 10856 10858 10860 10861 10862 10864 10864 10865 10866 10867 10868 10869 10870 10872 10873 10873 10875 10876 10877 10878 10879 10881 10883 10881 10878 10872 10867 10876 10874 10883 10886 10876 10869 10871
10847 10848 10848 10848 10848 10847 10847 10846 10847 10848 10849 10850 10852 10853 10854 10856 10857 10858 10859 10860 10860 10861 10862 10864 10865 10865 10866 10867 10865 10868 10870 10870 10872 10873 10871 10869 10862 10851 10877 10873 10871 10864 10864 10861 10859
10841 10841 10842 10842 10842 10842 10842 10841 10841 10842 10843 10843 10845 10846 10847 10848 10850 10851 10852 10852 10853 10854 10855 10856 10857 10858 10858 10856 10858 10860 10859 10860 10863 10865 10860 10857 10855 10847 10865 10868 10862 10857 10851 10846 10844
10834 10835 10835 10835 10836 10836 10836 10835 10834 10835 10835 10836 10837 10838 10840 10841 10842 10843 10844 10844 10845 10845 10847 10848 10848 10849 10849 10848 10850 10849 10846 10848 10853 10857 10848 10850 10844 10836 10853 10852 10852 10846 10835 10827 10821
10827 10828 10828 10828 10828 10829 10829 10828 10827 10827 10827 10827 10829 10829 10830 10832 10833 10834 10835 10836 10836 10837 10837 10837 10839 10840 10841 10837 10838 10836 10836 10834 10837 10845 10840 10837 10836 10818 10837 10843 10838 10831 10823 10818 10810
10819 10820 10821 10821 10820 10821 10821 10820 10818 10817 10818 10818 10819 10820 10821 10822 10823 10825 10826 10826 10826 10826 10826 10828 10830 10831 10826 10828 10825 10825 10825 10823 10821 10826 10828 10826 10820 10808 10806 10825 10828 10814 10805 10800 10796
10811 10811 10813 10813 10812 10812 10812 10810 10809 10807 10807 10807 10809 10810 10811 10812 10813 10814 10816 10816 10816 10816 10815 10816 10821 10819 10813 10817 10814 10814 10815 10810 10805 10804 10814 10812 10809 10795 10795 10799 10802 10795 10791 10785 10781
10802 10801 10803 10804 10804 10803 10803 10802 10799 10798 10797 10796 10797 10798 10801 10802 10802 10804 10805 10804 10804 10805 10803 10802 10812 10805 10802 10804 10805 10800 10805 10798 10794 10793 10789 10792 10790 10797 10785 10781 10773 10769 10770 10772 10767
10792 10791 10792 10794 10795 10794 10795 10792 10791 10792 10791 10788 10789 10789 10790 10791 10792 10792 10792 10793 10793 10793 10791 10793 10799 10790 10790 10796 10787 10790 10790 10787 10784 10779 10779 10767 10769 10783 10780 10772 10761 10758 10753 10751 10754
10781 10781 10781 10784 10784 10784 10785 10784 10784 10786 10785 10782 10783 10783 10782 10782 10782 10781 10782 10782 10783 10782 10780 10784 10784 10779 10782 10780 10775 10775 10779 10772 10771 10768 10765 10753 10751 10768 10767 10760 10752 10748 10743 10743 10742
10769 10770 10771 10773 10774 10774 10775 10775 10775 10777 10777 10778 10776 10776 10776 10775 10775 10773 10773 10773 10773 10772 10770 10770 10773 10771 10768 10765 10766 10765 10763 10763 10759 10757 10751 10743 10745 10747 10751 10749 10742 10735 10733 10731 10732
10757 10758 10760 10761 10762 10765 10766 10766 10764 10768 10769 10771 10769 10769 10769 10769 10768 10766 10766 10766 10765 10762 10761 10760 10762 10763 10752 10757 10756 10756 10752 10751 10751 10744 10739 10733 10740 10741 10740 10737 10732 10725 10719 10717 10718
10743 10745 10747 10750 10751 10753 10754 10754 10752 10759 10761 10759 10761 10762 10761 10761 10761 10759 10759 10759 10756 10755 10754 10752 10753 10750 10751 10741 10745 10744 10742 10742 10740 10736 10729 10718 10727 10735 10729 10725 10723 10716 10711 10704 10705
10728 10731 10733 10736 10739 10741 10741 10740 10743 10748 10749 10750 10751 10752 10752 10752 10752 10752 10751 10751 10750 10747 10745 10744 10743 10741 10741 10737 10733 10734 10730 10729 10730 10727 10720 10708 10715 10722 10717 10712 10707 10704 10699 10696 10692
10712 10715 10716 10720 10724 10727 10726 10729 10732 10738 10738 10740 10742 10743 10743 10742 10744 10744 10743 10743 10744 10738 10735 10736 10733 10731 10732 10731 10727 10724 10718 10718 10717 10712 10709 10701 10699 10712 10710 10701 10695 10689 10684 10681 10679
10695 10696 10699 10702 10707 10711 10711 10716 10721 10725 10726 10730 10731 10733 10732 10731 10735 10735 10736 10735 10733 10734 10727 10728 10725 10721 10718 10719 10719 10714 10712 10709 10706 10702 10694 10690 10688 10693 10695 10697 10692 10687 10681 10675 10666
10678 10681 10682 10687 10689 10695 10700 10704 10707 10712 10715 10718 10719 10722 10723 10721 10722 10724 10727 10725 10724 10723 10721 10719 10718 10714 10710 10708 10710 10705 10701 10697 10695 10692 10684 10677 10673 10677 10678 10675 10671 10673 10671 10665 10660
10663 10669 10671 10672 10676 10679 10684 10689 10695 10700 10703 10705 10708 10709 10711 10711 10710 10710 10717 10713 10713 10711 10710 10708 10709 10707 10704 10698 10700 10696 10691 10690 10687 10679 10673 10662 10661 10667 10662 10654 10654 10655 10653 10651 10650
10650 10659 10654 10657 10663 10664 10668 10673 10680 10684 10688 10693 10695 10698 10699 10701 10699 10699 10705 10704 10701 10697 10698 10697 10697 10697 10693 10691 10687 10686 10681 10677 10672 10670 10664 10651 10652 10648 10648 10648 10645 10642 10638 10636 10632
10634 10637 10637 10642 10648 10649 10656 10660 10664 10670 10675 10678 10683 10684 10688 10689 10689 10689 10694 10689 10691 10684 10686 10685 10686 10686 10682 10680 10679 10675 10669 10665 10661 10656 10652 10640 10643 10637 10636 10635 10636 10631 10631 10630 10624
10613 10619 10626 10631 10631 10637 10640 10644 10649 10654 10661 10664 10670 10672 10674 10681 10679 10676 10677 10681 10679 10678 10672 10674 10674 10675 10671 10670 10669 10664 10662 10654 10648 10647 10642 10635 10630 10628 10627 10630 10626 10620 10623 10621 10615